Time,TemperatureF,DewpointF,PressureIn,WindDirection,WindDirectionDegrees,WindSpeedMPH,WindSpeedGustMPH,Humidity,HourlyPrecipIn,Conditions,Clouds,dailyrainin,SoftwareType,DateUTC
2013-01-29 00:05:00,22.5,20.0,29.97,North,359,0.0,0.0,90,0.00,,,0.00,vanprod,2013-01-29 05:05:00,
2013-01-29 00:15:00,22.7,20.0,29.98,North,0,1.0,0.0,91,0.00,,,0.00,vanprod,2013-01-29 05:15:00,
2013-01-29 00:25:00,22.7,20.0,29.98,NE,34,1.0,0.0,91,0.00,,,0.00,vanprod,2013-01-29 05:25:00,
2013-01-29 00:35:00,22.7,20.0,29.98,NNE,32,1.0,1.0,91,0.00,,,0.00,vanprod,2013-01-29 05:35:00,
2013-01-29 00:45:00,22.9,21.0,29.98,North,7,0.0,0.0,91,0.00,,,0.00,vanprod,2013-01-29 05:45:00,
2013-01-29 00:55:00,22.9,21.0,29.98,NNE,18,1.0,0.0,91,0.00,,,0.00,vanprod,2013-01-29 05:55:00,
2013-01-29 01:05:00,22.9,21.0,29.98,NNE,32,1.0,0.0,91,0.00,,,0.00,vanprod,2013-01-29 06:05:00,
2013-01-29 01:15:00,22.9,21.0,29.98,NNE,28,0.0,2.0,91,0.00,,,0.00,vanprod,2013-01-29 06:15:00,
2013-01-29 01:25:00,23.0,21.0,29.98,NNE,31,0.0,0.0,91,0.00,,,0.00,vanprod,2013-01-29 06:25:00,
2013-01-29 01:35:00,23.0,21.0,29.98,NNE,31,0.0,1.0,91,0.00,,,0.00,vanprod,2013-01-29 06:35:00,
2013-01-29 01:45:00,23.0,21.0,29.99,NNE,25,0.0,0.0,91,0.00,,,0.00,vanprod,2013-01-29 06:45:00,
2013-01-29 01:55:00,23.0,21.0,29.99,NNE,16,0.0,0.0,91,0.00,,,0.00,vanprod,2013-01-29 06:55:00,
2013-01-29 02:05:00,23.0,21.0,29.99,NE,49,2.0,0.0,91,0.00,,,0.00,vanprod,2013-01-29 07:05:00,
2013-01-29 02:15:00,23.0,21.0,29.99,North,1,1.0,0.0,91,0.00,,,0.00,vanprod,2013-01-29 07:15:00,
2013-01-29 02:25:00,23.0,21.0,29.99,North,1,1.0,0.0,91,0.00,,,0.00,vanprod,2013-01-29 07:25:00,
2013-01-29 02:35:00,23.0,21.0,29.99,North,8,0.0,0.0,91,0.00,,,0.00,vanprod,2013-01-29 07:35:00,
2013-01-29 02:45:00,23.0,21.0,30.00,North,6,0.0,0.0,91,0.00,,,0.00,vanprod,2013-01-29 07:45:00,
2013-01-29 02:55:00,23.0,21.0,30.00,North,6,0.0,0.0,91,0.00,,,0.00,vanprod,2013-01-29 07:55:00,
2013-01-29 03:05:00,23.0,21.0,30.00,North,6,0.0,0.0,91,0.00,,,0.00,vanprod,2013-01-29 08:05:00,
2013-01-29 03:15:00,23.0,21.0,30.00,North,6,0.0,0.0,91,0.00,,,0.00,vanprod,2013-01-29 08:15:00,
2013-01-29 03:25:00,23.0,21.0,30.00,North,6,0.0,0.0,91,0.00,,,0.00,vanprod,2013-01-29 08:25:00,
2013-01-29 03:35:00,23.0,21.0,30.00,NW,323,0.0,0.0,91,0.00,,,0.00,vanprod,2013-01-29 08:35:00,
2013-01-29 03:45:00,23.0,20.0,30.01,North,7,0.0,1.0,90,0.00,,,0.00,vanprod,2013-01-29 08:45:00,
2013-01-29 03:55:00,23.0,20.0,30.01,North,349,1.0,0.0,90,0.00,,,0.00,vanprod,2013-01-29 08:55:00,
2013-01-29 04:05:00,23.0,20.0,30.01,NNE,16,1.0,0.0,90,0.00,,,0.00,vanprod,2013-01-29 09:05:00,
2013-01-29 04:15:00,23.0,20.0,30.01,NNW,347,0.0,0.0,90,0.00,,,0.00,vanprod,2013-01-29 09:15:00,
2013-01-29 04:25:00,23.2,21.0,30.01,North,354,0.0,0.0,90,0.00,,,0.00,vanprod,2013-01-29 09:25:00,
2013-01-29 04:35:00,23.2,20.0,30.01,North,357,0.0,0.0,89,0.00,,,0.00,vanprod,2013-01-29 09:35:00,
2013-01-29 04:45:00,23.2,20.0,30.01,NNW,328,0.0,0.0,89,0.00,,,0.00,vanprod,2013-01-29 09:45:00,
2013-01-29 04:55:00,23.3,20.0,30.01,NNW,339,0.0,1.0,89,0.00,,,0.00,vanprod,2013-01-29 09:55:00,
2013-01-29 05:05:00,23.3,20.0,30.01,NNW,336,0.0,0.0,89,0.00,,,0.00,vanprod,2013-01-29 10:05:00,
2013-01-29 05:15:00,23.3,20.0,30.01,NNE,18,0.0,0.0,89,0.00,,,0.00,vanprod,2013-01-29 10:15:00,
2013-01-29 05:25:00,23.5,20.0,30.01,North,3,0.0,0.0,88,0.00,,,0.00,vanprod,2013-01-29 10:25:00,
2013-01-29 05:35:00,23.5,21.0,30.02,North,3,0.0,1.0,89,0.00,,,0.00,vanprod,2013-01-29 10:35:00,
2013-01-29 05:45:00,23.5,21.0,30.02,North,3,0.0,0.0,89,0.00,,,0.00,vanprod,2013-01-29 10:45:00,
2013-01-29 05:55:00,23.6,21.0,30.02,North,6,0.0,0.0,89,0.00,,,0.00,vanprod,2013-01-29 10:55:00,
2013-01-29 06:05:00,23.6,21.0,30.02,North,4,0.0,0.0,89,0.00,,,0.00,vanprod,2013-01-29 11:05:00,
2013-01-29 06:15:00,23.6,21.0,30.02,North,6,0.0,0.0,89,0.00,,,0.00,vanprod,2013-01-29 11:15:00,
2013-01-29 06:25:00,23.6,21.0,30.03,North,6,0.0,0.0,89,0.00,,,0.00,vanprod,2013-01-29 11:25:00,
2013-01-29 06:35:00,23.6,21.0,30.03,North,6,0.0,0.0,89,0.00,,,0.00,vanprod,2013-01-29 11:35:00,
2013-01-29 06:45:00,23.6,21.0,30.04,North,6,0.0,0.0,89,0.00,,,0.00,vanprod,2013-01-29 11:45:00,
2013-01-29 06:55:00,23.6,21.0,30.04,North,6,0.0,0.0,88,0.00,,,0.00,vanprod,2013-01-29 11:55:00,
2013-01-29 07:05:00,23.6,21.0,30.05,North,359,0.0,0.0,88,0.00,,,0.00,vanprod,2013-01-29 12:05:00,
2013-01-29 07:15:00,23.8,21.0,30.07,NNW,329,1.0,0.0,88,0.00,,,0.00,vanprod,2013-01-29 12:15:00,
2013-01-29 07:25:00,23.8,21.0,30.07,NE,42,0.0,0.0,88,0.00,,,0.00,vanprod,2013-01-29 12:25:00,
2013-01-29 07:35:00,23.8,21.0,30.05,NNE,21,0.0,0.0,88,0.00,,,0.00,vanprod,2013-01-29 12:35:00,
2013-01-29 07:45:00,23.9,21.0,30.07,NNE,23,0.0,0.0,88,0.00,,,0.00,vanprod,2013-01-29 12:45:00,
2013-01-29 07:55:00,24.1,21.0,30.07,NNE,21,0.0,0.0,88,0.00,,,0.00,vanprod,2013-01-29 12:55:00,
2013-01-29 08:05:00,24.2,21.0,30.08,NNE,23,0.0,1.0,88,0.00,,,0.00,vanprod,2013-01-29 13:05:00,
2013-01-29 08:15:00,24.4,21.0,30.08,NNE,21,0.0,0.0,87,0.00,,,0.00,vanprod,2013-01-29 13:15:00,
2013-01-29 08:25:00,24.5,21.0,30.08,NNE,21,0.0,0.0,87,0.00,,,0.00,vanprod,2013-01-29 13:25:00,
2013-01-29 08:35:00,24.8,21.0,30.07,NNE,21,0.0,0.0,86,0.00,,,0.00,vanprod,2013-01-29 13:35:00,
2013-01-29 08:45:00,25.1,21.0,30.09,NNE,21,0.0,0.0,86,0.00,,,0.00,vanprod,2013-01-29 13:45:00,
2013-01-29 08:55:00,25.4,22.0,30.09,NNE,21,0.0,0.0,86,0.00,,,0.00,vanprod,2013-01-29 13:55:00,
2013-01-29 09:05:00,25.7,22.0,30.10,NNE,21,0.0,0.0,85,0.00,,,0.00,vanprod,2013-01-29 14:05:00,
2013-01-29 09:15:00,26.0,22.0,30.10,NNE,20,0.0,0.0,85,0.00,,,0.00,vanprod,2013-01-29 14:15:00,
2013-01-29 09:25:00,26.4,22.0,30.10,NNE,20,0.0,0.0,84,0.00,,,0.00,vanprod,2013-01-29 14:25:00,
2013-01-29 09:35:00,26.6,22.0,30.11,NNW,347,1.0,1.0,83,0.00,,,0.00,vanprod,2013-01-29 14:35:00,
2013-01-29 09:45:00,26.9,22.0,30.11,NW,318,1.0,2.0,83,0.00,,,0.00,vanprod,2013-01-29 14:45:00,
2013-01-29 09:55:00,27.2,23.0,30.11,NNE,17,1.0,0.0,83,0.00,,,0.00,vanprod,2013-01-29 14:55:00,
2013-01-29 10:05:00,27.6,23.0,30.11,NE,52,1.0,2.0,82,0.00,,,0.00,vanprod,2013-01-29 15:05:00,
2013-01-29 10:15:00,28.1,23.0,30.12,NE,52,0.0,0.0,82,0.00,,,0.00,vanprod,2013-01-29 15:15:00,
2013-01-29 10:25:00,28.4,23.0,30.12,NE,51,1.0,0.0,81,0.00,,,0.00,vanprod,2013-01-29 15:25:00,
2013-01-29 10:35:00,28.5,23.0,30.12,North,1,1.0,0.0,81,0.00,,,0.00,vanprod,2013-01-29 15:35:00,
2013-01-29 10:45:00,28.8,24.0,30.12,North,1,0.0,0.0,81,0.00,,,0.00,vanprod,2013-01-29 15:45:00,
2013-01-29 10:55:00,29.0,24.0,30.12,North,357,1.0,5.0,81,0.00,,,0.00,vanprod,2013-01-29 15:55:00,
2013-01-29 11:05:00,29.5,24.0,30.13,NNW,343,1.0,3.0,80,0.00,,,0.00,vanprod,2013-01-29 16:05:00,
2013-01-29 11:15:00,29.8,24.0,30.12,NNW,333,1.0,0.0,80,0.00,,,0.00,vanprod,2013-01-29 16:15:00,
2013-01-29 11:25:00,30.3,25.0,30.12,North,0,1.0,2.0,80,0.00,,,0.00,vanprod,2013-01-29 16:25:00,
2013-01-29 11:35:00,30.6,25.0,30.13,NNW,346,1.0,1.0,79,0.00,,,0.00,vanprod,2013-01-29 16:35:00,
2013-01-29 11:45:00,30.7,25.0,30.12,NNW,346,1.0,2.0,78,0.00,,,0.00,vanprod,2013-01-29 16:45:00,
2013-01-29 11:55:00,31.2,26.0,30.12,North,353,0.0,1.0,80,0.00,,,0.00,vanprod,2013-01-29 16:55:00,
2013-01-29 12:05:00,31.5,25.0,30.12,NE,44,1.0,0.0,78,0.00,,,0.00,vanprod,2013-01-29 17:05:00,
2013-01-29 12:15:00,31.9,26.0,30.12,NE,42,0.0,0.0,78,0.00,,,0.00,vanprod,2013-01-29 17:15:00,
2013-01-29 12:25:00,32.4,26.0,30.11,North,353,1.0,0.0,77,0.00,,,0.00,vanprod,2013-01-29 17:25:00,
2013-01-29 12:35:00,32.8,26.0,30.10,North,352,0.0,0.0,77,0.00,,,0.00,vanprod,2013-01-29 17:35:00,
2013-01-29 12:45:00,33.2,26.0,30.10,North,353,0.0,0.0,75,0.00,,,0.01,vanprod,2013-01-29 17:45:00,
2013-01-29 12:55:00,33.5,27.0,30.10,North,353,0.0,0.0,77,0.00,,,0.01,vanprod,2013-01-29 17:55:00,
2013-01-29 13:05:00,33.4,27.0,30.10,North,353,0.0,0.0,77,0.00,,,0.01,vanprod,2013-01-29 18:05:00,
2013-01-29 13:15:00,33.5,27.0,30.10,North,353,0.0,1.0,76,0.00,,,0.01,vanprod,2013-01-29 18:15:00,
2013-01-29 13:25:00,33.4,27.0,30.10,North,353,0.0,0.0,76,0.00,,,0.01,vanprod,2013-01-29 18:25:00,
2013-01-29 13:35:00,33.5,27.0,30.10,North,354,0.0,0.0,77,0.00,,,0.02,vanprod,2013-01-29 18:35:00,
2013-01-29 13:45:00,34.0,28.0,30.10,North,354,0.0,0.0,77,0.00,,,0.02,vanprod,2013-01-29 18:45:00,
2013-01-29 13:55:00,34.4,28.0,30.09,NE,35,0.0,1.0,76,0.00,,,0.02,vanprod,2013-01-29 18:55:00,
2013-01-29 14:05:00,34.9,28.0,30.09,ENE,69,1.0,1.0,75,0.00,,,0.02,vanprod,2013-01-29 19:05:00,
2013-01-29 14:15:00,35.0,28.0,30.10,East,80,1.0,0.0,75,0.00,,,0.02,vanprod,2013-01-29 19:15:00,
2013-01-29 14:25:00,34.9,28.0,30.10,East,82,0.0,0.0,76,0.00,,,0.03,vanprod,2013-01-29 19:25:00,
2013-01-29 14:35:00,34.4,28.0,30.09,East,82,0.0,0.0,77,0.00,,,0.03,vanprod,2013-01-29 19:35:00,
2013-01-29 14:45:00,33.8,28.0,30.10,WNW,295,0.0,0.0,78,0.00,,,0.04,vanprod,2013-01-29 19:45:00,
2013-01-29 14:55:00,33.7,28.0,30.10,WNW,295,0.0,0.0,78,0.04,,,0.05,vanprod,2013-01-29 19:55:00,
2013-01-29 15:05:00,33.8,28.0,30.10,WNW,295,0.0,0.0,78,0.04,,,0.05,vanprod,2013-01-29 20:05:00,
2013-01-29 15:15:00,34.0,28.0,30.10,WNW,295,0.0,1.0,78,0.00,,,0.05,vanprod,2013-01-29 20:15:00,
2013-01-29 15:25:00,34.0,28.0,30.10,WNW,295,0.0,0.0,78,0.00,,,0.05,vanprod,2013-01-29 20:25:00,
2013-01-29 15:35:00,34.1,29.0,30.10,WNW,295,0.0,0.0,80,0.00,,,0.05,vanprod,2013-01-29 20:35:00,
2013-01-29 15:45:00,34.1,29.0,30.10,WNW,295,0.0,0.0,81,0.00,,,0.06,vanprod,2013-01-29 20:45:00,
2013-01-29 15:55:00,34.0,28.0,30.10,WNW,295,0.0,0.0,80,0.00,,,0.06,vanprod,2013-01-29 20:55:00,
2013-01-29 16:05:00,33.8,29.0,30.11,WNW,295,0.0,0.0,81,0.00,,,0.06,vanprod,2013-01-29 21:05:00,
2013-01-29 16:15:00,33.8,29.0,30.11,WNW,295,0.0,0.0,81,0.00,,,0.06,vanprod,2013-01-29 21:15:00,
2013-01-29 16:25:00,33.7,29.0,30.09,WNW,295,0.0,0.0,83,0.00,,,0.07,vanprod,2013-01-29 21:25:00,
2013-01-29 16:35:00,33.4,29.0,30.10,WNW,295,0.0,0.0,83,0.00,,,0.07,vanprod,2013-01-29 21:35:00,
2013-01-29 16:45:00,33.2,29.0,30.10,WNW,296,0.0,0.0,84,0.00,,,0.07,vanprod,2013-01-29 21:45:00,
2013-01-29 16:55:00,33.1,29.0,30.11,WNW,295,0.0,0.0,85,0.00,,,0.07,vanprod,2013-01-29 21:55:00,
2013-01-29 17:05:00,32.9,29.0,30.11,WNW,296,0.0,0.0,85,0.00,,,0.07,vanprod,2013-01-29 22:05:00,
2013-01-29 17:15:00,32.8,29.0,30.11,WNW,295,0.0,0.0,85,0.00,,,0.07,vanprod,2013-01-29 22:15:00,
2013-01-29 17:25:00,32.5,28.0,30.11,WNW,295,0.0,0.0,85,0.00,,,0.07,vanprod,2013-01-29 22:25:00,
2013-01-29 17:35:00,32.5,29.0,30.10,WNW,296,0.0,0.0,86,0.00,,,0.08,vanprod,2013-01-29 22:35:00,
2013-01-29 17:45:00,32.4,29.0,30.12,WNW,302,0.0,0.0,87,0.00,,,0.08,vanprod,2013-01-29 22:45:00,
2013-01-29 17:55:00,32.4,29.0,30.12,WNW,302,0.0,0.0,88,0.00,,,0.08,vanprod,2013-01-29 22:55:00,
2013-01-29 18:05:00,32.2,29.0,30.12,NW,304,0.0,0.0,88,0.00,,,0.08,vanprod,2013-01-29 23:05:00,
2013-01-29 18:15:00,32.1,29.0,30.12,NW,304,0.0,0.0,88,0.00,,,0.08,vanprod,2013-01-29 23:15:00,
2013-01-29 18:25:00,32.1,29.0,30.12,WNW,302,0.0,0.0,88,0.00,,,0.08,vanprod,2013-01-29 23:25:00,
2013-01-29 18:35:00,31.9,29.0,30.12,NW,304,0.0,0.0,89,0.00,,,0.08,vanprod,2013-01-29 23:35:00,
2013-01-29 18:45:00,31.9,29.0,30.12,NW,304,0.0,1.0,89,0.00,,,0.08,vanprod,2013-01-29 23:45:00,
2013-01-29 18:55:00,31.9,29.0,30.11,North,357,1.0,0.0,90,0.00,,,0.08,vanprod,2013-01-29 23:55:00,
2013-01-29 19:05:00,31.9,29.0,30.12,North,357,0.0,0.0,90,0.00,,,0.08,vanprod,2013-01-30 00:05:00,
2013-01-29 19:15:00,31.9,29.0,30.12,North,357,0.0,0.0,90,0.00,,,0.08,vanprod,2013-01-30 00:15:00,
2013-01-29 19:25:00,31.9,29.0,30.11,North,357,0.0,0.0,90,0.00,,,0.08,vanprod,2013-01-30 00:25:00,
2013-01-29 19:35:00,31.9,29.0,30.11,North,357,0.0,0.0,90,0.00,,,0.08,vanprod,2013-01-30 00:35:00,
2013-01-29 19:45:00,31.9,29.0,30.10,North,357,0.0,0.0,90,0.00,,,0.08,vanprod,2013-01-30 00:45:00,
2013-01-29 19:55:00,31.8,29.0,30.10,North,357,0.0,0.0,90,0.00,,,0.08,vanprod,2013-01-30 00:55:00,
2013-01-29 20:05:00,31.8,29.0,30.10,North,357,0.0,0.0,91,0.00,,,0.08,vanprod,2013-01-30 01:05:00,
2013-01-29 20:15:00,31.8,29.0,30.10,North,357,0.0,0.0,91,0.00,,,0.08,vanprod,2013-01-30 01:15:00,
2013-01-29 20:25:00,31.9,30.0,30.10,North,357,0.0,0.0,91,0.00,,,0.08,vanprod,2013-01-30 01:25:00,
2013-01-29 20:35:00,31.8,29.0,30.11,North,357,0.0,0.0,91,0.00,,,0.08,vanprod,2013-01-30 01:35:00,
2013-01-29 20:45:00,31.8,29.0,30.11,North,357,0.0,0.0,91,0.00,,,0.08,vanprod,2013-01-30 01:45:00,
2013-01-29 20:55:00,31.8,29.0,30.11,North,357,0.0,0.0,91,0.00,,,0.08,vanprod,2013-01-30 01:55:00,
2013-01-29 21:05:00,31.8,29.0,30.10,North,357,0.0,0.0,91,0.00,,,0.08,vanprod,2013-01-30 02:05:00,
2013-01-29 21:15:00,31.8,29.0,30.10,North,357,0.0,0.0,91,0.00,,,0.08,vanprod,2013-01-30 02:15:00,
2013-01-29 21:25:00,31.8,29.0,30.09,North,357,0.0,0.0,91,0.00,,,0.08,vanprod,2013-01-30 02:25:00,
2013-01-29 21:35:00,31.8,29.0,30.10,North,357,0.0,0.0,91,0.00,,,0.08,vanprod,2013-01-30 02:35:00,
2013-01-29 21:45:00,31.8,30.0,30.10,North,357,0.0,0.0,92,0.00,,,0.08,vanprod,2013-01-30 02:45:00,
2013-01-29 21:55:00,31.8,30.0,30.10,North,357,0.0,0.0,92,0.00,,,0.08,vanprod,2013-01-30 02:55:00,
2013-01-29 22:05:00,31.8,30.0,30.10,North,357,0.0,0.0,92,0.00,,,0.08,vanprod,2013-01-30 03:05:00,
2013-01-29 22:15:00,31.8,30.0,30.10,North,357,0.0,0.0,92,0.00,,,0.08,vanprod,2013-01-30 03:15:00,
2013-01-29 22:25:00,31.8,30.0,30.09,North,357,0.0,0.0,92,0.00,,,0.08,vanprod,2013-01-30 03:25:00,
2013-01-29 22:35:00,31.8,30.0,30.10,North,357,0.0,0.0,93,0.00,,,0.08,vanprod,2013-01-30 03:35:00,
2013-01-29 22:45:00,31.9,30.0,30.09,North,357,0.0,0.0,93,0.00,,,0.08,vanprod,2013-01-30 03:45:00,
2013-01-29 22:55:00,31.9,30.0,30.09,North,357,0.0,0.0,93,0.00,,,0.08,vanprod,2013-01-30 03:55:00,
2013-01-29 23:05:00,31.9,30.0,30.08,North,357,0.0,0.0,93,0.00,,,0.08,vanprod,2013-01-30 04:05:00,
2013-01-29 23:15:00,31.9,30.0,30.08,North,357,0.0,0.0,93,0.00,,,0.08,vanprod,2013-01-30 04:15:00,
2013-01-29 23:25:00,31.9,30.0,30.08,North,357,0.0,0.0,93,0.00,,,0.09,vanprod,2013-01-30 04:25:00,
2013-01-29 23:35:00,31.9,30.0,30.08,North,357,0.0,0.0,94,0.00,,,0.09,vanprod,2013-01-30 04:35:00,
2013-01-29 23:45:00,31.9,30.0,30.08,North,357,0.0,0.0,94,0.00,,,0.09,vanprod,2013-01-30 04:45:00,
2013-01-29 23:55:00,31.9,30.0,30.08,North,357,0.0,0.0,94,0.00,,,0.09,vanprod,2013-01-30 04:55:00,